VJC273 VVTS-VVDN

Flight info

Callsign VJC273
Flight time 0h 59m
Altitude 35000
Route PATMA5A PATMA Q2 SADAS/K0835F290 Q7 MUMGA Q1 SADIN SADIN2L
Aircraft A21N/M-SDE3FGHIRWY/LB1

Departure

Time 2026-04-23 06:00
Airport Tan Son Nhat International Airport (VVTS)

Arrival

Time 2026-04-23 06:59
Airport Da Nang International Airport (VVDN)
Time Latitude Longitude Altitude Speed Heading
2026-04-23 05:30 10.81538 106.65966 26 ft 0 kts 276°
2026-04-23 05:44 10.81537 106.65974 26 ft 2 kts 276°
2026-04-23 05:45 10.81526 106.66026 25 ft 2 kts 314°
2026-04-23 05:45 10.81509 106.66037 25 ft 2 kts 347°
2026-04-23 05:46 10.81492 106.66037 25 ft 0 kts
2026-04-23 05:50 10.81503 106.66038 25 ft 2 kts
2026-04-23 05:50 10.81531 106.66042 25 ft 4 kts
2026-04-23 05:50 10.81567 106.66045 26 ft 5 kts
2026-04-23 05:50 10.81602 106.66048 27 ft 5 kts
2026-04-23 05:51 10.81641 106.66051 28 ft 6 kts
2026-04-23 05:51 10.81692 106.66058 29 ft 8 kts 14°
2026-04-23 05:51 10.81753 106.66097 30 ft 12 kts 51°
2026-04-23 05:51 10.81793 106.66193 25 ft 18 kts 70°
2026-04-23 05:52 10.81817 106.66255 23 ft 20 kts 69°
2026-04-23 05:52 10.81848 106.66338 24 ft 16 kts 69°
2026-04-23 05:52 10.81887 106.66443 26 ft 15 kts 70°
2026-04-23 05:53 10.81927 106.66547 24 ft 16 kts 69°
2026-04-23 05:53 10.81969 106.66658 23 ft 16 kts 69°
2026-04-23 05:53 10.82009 106.66763 26 ft 14 kts 69°
2026-04-23 05:53 10.82038 106.66840 31 ft 9 kts 66°
2026-04-23 05:54 10.82068 106.66890 33 ft 7 kts 49°
2026-04-23 05:54 10.82083 106.66904 33 ft 0 kts 40°
2026-04-23 05:55 10.82084 106.66904 33 ft 0 kts 41°
2026-04-23 05:55 10.82094 106.66914 34 ft 3 kts 41°
2026-04-23 05:55 10.82122 106.66937 34 ft 7 kts 39°
2026-04-23 05:55 10.82175 106.66981 33 ft 10 kts 38°
2026-04-23 05:56 10.82238 106.67013 33 ft 7 kts 359°
2026-04-23 05:56 10.82263 106.67006 33 ft 0 kts 340°
2026-04-23 05:57 10.82275 106.67001 33 ft 4 kts 340°
2026-04-23 05:58 10.82315 106.66979 33 ft 8 kts 314°
2026-04-23 05:58 10.82351 106.66929 33 ft 7 kts 290°
2026-04-23 05:58 10.82346 106.66884 34 ft 0 kts 251°
2026-04-23 05:59 10.82303 106.66767 35 ft 50 kts 250°
2026-04-23 05:59 10.82086 106.66202 33 ft 117 kts 249°
2026-04-23 05:59 10.81725 106.65238 37 ft 170 kts 248°
2026-04-23 06:00 10.81285 106.64046 406 ft 183 kts 245°
2026-04-23 06:00 10.80820 106.62849 1048 ft 185 kts 245°
2026-04-23 06:00 10.80318 106.61667 1580 ft 185 kts 246°
2026-04-23 06:00 10.79829 106.60401 1841 ft 197 kts 247°
2026-04-23 06:01 10.79332 106.59064 2150 ft 207 kts 248°
2026-04-23 06:01 10.78824 106.57679 2434 ft 218 kts 248°
2026-04-23 06:01 10.78275 106.56184 2674 ft 234 kts 252°
2026-04-23 06:01 10.78080 106.54472 2802 ft 256 kts 281°
2026-04-23 06:02 10.78913 106.52843 3064 ft 270 kts 317°
2026-04-23 06:02 10.80550 106.51893 3466 ft 277 kts 343°
2026-04-23 06:02 10.82401 106.51339 4069 ft 279 kts 343°
2026-04-23 06:02 10.84263 106.50706 4725 ft 280 kts 341°
2026-04-23 06:03 10.86099 106.50038 5368 ft 281 kts 340°
2026-04-23 06:03 10.87937 106.49339 5987 ft 284 kts 340°
2026-04-23 06:03 10.89825 106.48810 6582 ft 285 kts 359°
2026-04-23 06:03 10.91753 106.49190 7197 ft 284 kts 27°
2026-04-23 06:04 10.93298 106.50417 7809 ft 283 kts 51°
2026-04-23 06:04 10.94481 106.51988 8409 ft 284 kts 54°
2026-04-23 06:04 10.95673 106.53598 8984 ft 287 kts 53°
2026-04-23 06:04 10.96890 106.55217 9578 ft 289 kts 53°
2026-04-23 06:05 10.98119 106.56831 10098 ft 292 kts 52°
2026-04-23 06:05 10.99410 106.58519 10358 ft 306 kts 52°
2026-04-23 06:05 11.00740 106.60249 10592 ft 319 kts 52°
2026-04-23 06:05 11.02138 106.62070 10965 ft 328 kts 52°
2026-04-23 06:06 11.03543 106.63899 11481 ft 331 kts 52°
2026-04-23 06:06 11.04961 106.65746 11956 ft 334 kts 52°
2026-04-23 06:06 11.06404 106.67628 12437 ft 336 kts 52°
2026-04-23 06:06 11.07836 106.69495 12897 ft 339 kts 52°
2026-04-23 06:07 11.09300 106.71405 13380 ft 342 kts 52°
2026-04-23 06:07 11.10774 106.73328 13852 ft 344 kts 52°
2026-04-23 06:07 11.12232 106.75231 14315 ft 346 kts 52°
2026-04-23 06:07 11.13729 106.77183 14777 ft 347 kts 52°
2026-04-23 06:08 11.15207 106.79113 15224 ft 349 kts 52°
2026-04-23 06:08 11.16717 106.81082 15664 ft 351 kts 52°
2026-04-23 06:08 11.18212 106.83032 16074 ft 354 kts 52°
2026-04-23 06:08 11.19727 106.85010 16488 ft 356 kts 53°
2026-04-23 06:09 11.21251 106.87000 16882 ft 358 kts 52°
2026-04-23 06:09 11.22781 106.88999 17291 ft 359 kts 53°
2026-04-23 06:09 11.24321 106.91012 17698 ft 361 kts 53°
2026-04-23 06:09 11.25868 106.93035 18075 ft 363 kts 52°
2026-04-23 06:10 11.27421 106.95068 18426 ft 365 kts 53°
2026-04-23 06:10 11.28991 106.97122 18769 ft 368 kts 53°
2026-04-23 06:10 11.30568 106.99184 19098 ft 371 kts 53°
2026-04-23 06:10 11.32163 107.01271 19428 ft 374 kts 52°
2026-04-23 06:11 11.33772 107.03369 19744 ft 376 kts 52°
2026-04-23 06:11 11.35519 107.05380 20057 ft 379 kts 46°
2026-04-23 06:11 11.37469 107.07221 20360 ft 383 kts 40°
2026-04-23 06:11 11.39564 107.08888 20666 ft 385 kts 38°
2026-04-23 06:12 11.41731 107.10543 20960 ft 388 kts 37°
2026-04-23 06:12 11.43895 107.12183 21244 ft 391 kts 38°
2026-04-23 06:12 11.48253 107.15497 21956 ft 391 kts 38°
2026-04-23 06:13 11.50449 107.17170 22258 ft 392 kts 38°
2026-04-23 06:13 11.52632 107.18837 22544 ft 394 kts 38°
2026-04-23 06:13 11.54846 107.20528 22842 ft 396 kts 38°
2026-04-23 06:13 11.57037 107.22202 23157 ft 397 kts 38°
2026-04-23 06:14 11.59266 107.23907 23469 ft 398 kts 38°
2026-04-23 06:14 11.61499 107.25615 23754 ft 400 kts 38°
2026-04-23 06:14 11.63707 107.27304 24029 ft 401 kts 38°
2026-04-23 06:14 11.65955 107.29024 24309 ft 403 kts 38°
2026-04-23 06:15 11.68204 107.30746 24586 ft 404 kts 38°
2026-04-23 06:15 11.70461 107.32474 24858 ft 406 kts 38°
2026-04-23 06:15 11.72734 107.34214 25128 ft 407 kts 38°
2026-04-23 06:15 11.75013 107.35959 25391 ft 409 kts 38°
2026-04-23 06:16 11.77271 107.37688 25665 ft 410 kts 37°
2026-04-23 06:16 11.79561 107.39442 25938 ft 411 kts 38°
2026-04-23 06:16 11.81861 107.41205 26190 ft 413 kts 37°
2026-04-23 06:16 11.84175 107.42978 26451 ft 414 kts 37°
2026-04-23 06:17 11.86463 107.44732 26712 ft 415 kts 37°
2026-04-23 06:17 11.88788 107.46516 26971 ft 416 kts 37°
2026-04-23 06:17 11.91098 107.48287 27220 ft 417 kts 37°
2026-04-23 06:17 11.93441 107.50085 27470 ft 419 kts 37°
2026-04-23 06:18 11.95754 107.51859 27709 ft 420 kts 37°
2026-04-23 06:18 11.98106 107.53666 27933 ft 422 kts 37°
2026-04-23 06:18 12.00468 107.55481 28160 ft 424 kts 37°
2026-04-23 06:18 12.02802 107.57276 28402 ft 425 kts 37°
2026-04-23 06:19 12.05179 107.59099 28607 ft 428 kts 37°
2026-04-23 06:19 12.07564 107.60928 28779 ft 430 kts 37°
2026-04-23 06:19 12.09982 107.62784 29061 ft 431 kts 37°
2026-04-23 06:19 12.12386 107.64632 29310 ft 432 kts 37°
2026-04-23 06:20 12.14795 107.66487 29528 ft 433 kts 38°
2026-04-23 06:20 12.17207 107.68344 29783 ft 434 kts 37°
2026-04-23 06:20 12.19615 107.70198 30066 ft 433 kts 38°
2026-04-23 06:20 12.22003 107.72038 30320 ft 434 kts 37°
2026-04-23 06:21 12.24415 107.73895 30563 ft 435 kts 37°
2026-04-23 06:21 12.26847 107.75766 30779 ft 436 kts 37°
2026-04-23 06:21 12.29381 107.77499 30978 ft 438 kts 31°
2026-04-23 06:21 12.32123 107.78925 31176 ft 440 kts 24°
2026-04-23 06:22 12.34994 107.80015 31379 ft 442 kts 18°
2026-04-23 06:22 12.37973 107.80763 31570 ft 444 kts 11°
2026-04-23 06:22 12.41075 107.81153 31782 ft 445 kts
2026-04-23 06:22 12.44148 107.81269 32013 ft 446 kts
2026-04-23 06:23 12.47259 107.81329 32223 ft 447 kts
2026-04-23 06:23 12.50388 107.81381 32403 ft 448 kts
2026-04-23 06:23 12.53544 107.81432 32603 ft 449 kts
2026-04-23 06:23 12.56664 107.81486 32879 ft 448 kts
2026-04-23 06:24 12.59774 107.81543 33188 ft 447 kts
2026-04-23 06:24 12.62871 107.81602 33473 ft 447 kts
2026-04-23 06:24 12.66017 107.81662 33715 ft 447 kts
2026-04-23 06:24 12.69113 107.81722 33941 ft 448 kts
2026-04-23 06:25 12.72240 107.81784 34171 ft 448 kts
2026-04-23 06:25 12.75388 107.81847 34390 ft 449 kts
2026-04-23 06:25 12.78503 107.81908 34601 ft 449 kts
2026-04-23 06:25 12.81647 107.81971 34804 ft 449 kts
2026-04-23 06:26 12.87916 107.82094 34846 ft 450 kts
2026-04-23 06:26 12.94166 107.82217 34844 ft 450 kts
2026-04-23 06:27 13.00458 107.82340 34837 ft 449 kts
2026-04-23 06:27 13.06712 107.82463 34836 ft 450 kts
2026-04-23 06:28 13.13010 107.82587 34833 ft 450 kts
2026-04-23 06:28 13.19282 107.82711 34825 ft 450 kts
2026-04-23 06:29 13.25546 107.82983 34820 ft 450 kts
2026-04-23 06:29 13.31719 107.84003 34829 ft 449 kts 14°
2026-04-23 06:30 13.37717 107.85833 34834 ft 447 kts 21°
2026-04-23 06:30 13.43430 107.88359 34844 ft 446 kts 26°
2026-04-23 06:31 13.49044 107.91039 34854 ft 446 kts 26°
2026-04-23 06:31 13.54691 107.93735 34867 ft 447 kts 26°
2026-04-23 06:32 13.60339 107.96428 34885 ft 447 kts 26°
2026-04-23 06:32 13.66006 107.99129 34903 ft 447 kts 26°
2026-04-23 06:33 13.71651 108.01823 34913 ft 447 kts 26°
2026-04-23 06:33 13.77270 108.04503 34917 ft 447 kts 26°
2026-04-23 06:34 13.82941 108.07210 34924 ft 446 kts 26°
2026-04-23 06:34 13.88582 108.09905 34929 ft 447 kts 26°
2026-04-23 06:35 13.94270 108.12488 34931 ft 447 kts 22°
2026-04-23 06:35 14.00214 108.14359 34934 ft 448 kts 14°
2026-04-23 06:36 14.06393 108.15400 34649 ft 446 kts
2026-04-23 06:36 14.09520 108.15601 33680 ft 453 kts
2026-04-23 06:36 14.12678 108.15681 32435 ft 463 kts
2026-04-23 06:37 14.15938 108.15741 31431 ft 467 kts
2026-04-23 06:37 14.19158 108.15797 30967 ft 460 kts
2026-04-23 06:37 14.22331 108.15856 30518 ft 453 kts
2026-04-23 06:37 14.25497 108.15920 30061 ft 447 kts
2026-04-23 06:38 14.28576 108.15985 29604 ft 442 kts
2026-04-23 06:38 14.31633 108.16052 29154 ft 436 kts
2026-04-23 06:38 14.34647 108.16119 28705 ft 431 kts
2026-04-23 06:38 14.37629 108.16185 28256 ft 426 kts
2026-04-23 06:39 14.40588 108.16251 27805 ft 422 kts
2026-04-23 06:39 14.43518 108.16316 27341 ft 418 kts
2026-04-23 06:39 14.46414 108.16379 26880 ft 415 kts
2026-04-23 06:39 14.49295 108.16444 26414 ft 411 kts
2026-04-23 06:40 14.52147 108.16507 25951 ft 408 kts
2026-04-23 06:40 14.54980 108.16569 25486 ft 405 kts
2026-04-23 06:40 14.57788 108.16629 25044 ft 402 kts
2026-04-23 06:40 14.60603 108.16690 24593 ft 399 kts
2026-04-23 06:41 14.63358 108.16750 24143 ft 396 kts
2026-04-23 06:41 14.66089 108.16810 23706 ft 393 kts
2026-04-23 06:41 14.68831 108.16869 23273 ft 391 kts
2026-04-23 06:41 14.71563 108.16929 22834 ft 388 kts
2026-04-23 06:42 14.74243 108.16986 22414 ft 385 kts
2026-04-23 06:42 14.76919 108.17045 21990 ft 383 kts
2026-04-23 06:42 14.79585 108.17104 21570 ft 381 kts
2026-04-23 06:42 14.82231 108.17163 21145 ft 379 kts
2026-04-23 06:43 14.84868 108.17220 20739 ft 376 kts
2026-04-23 06:43 14.87468 108.17277 20389 ft 372 kts
2026-04-23 06:43 14.90028 108.17333 20021 ft 369 kts
2026-04-23 06:43 14.92608 108.17390 19628 ft 366 kts
2026-04-23 06:44 14.95136 108.17447 19226 ft 364 kts
2026-04-23 06:44 14.97684 108.17504 18800 ft 363 kts
2026-04-23 06:44 15.00192 108.17560 18376 ft 361 kts
2026-04-23 06:44 15.02716 108.17616 17946 ft 359 kts
2026-04-23 06:45 15.05227 108.17671 17518 ft 358 kts
2026-04-23 06:45 15.07694 108.17504 17082 ft 356 kts 351°
2026-04-23 06:45 15.10110 108.16933 16607 ft 352 kts 342°
2026-04-23 06:45 15.12386 108.16106 16153 ft 344 kts 339°
2026-04-23 06:46 15.14641 108.15226 15691 ft 340 kts 339°
2026-04-23 06:46 15.16834 108.14365 15241 ft 336 kts 339°
2026-04-23 06:46 15.19002 108.13519 14809 ft 332 kts 339°
2026-04-23 06:46 15.21163 108.12682 14412 ft 329 kts 339°
2026-04-23 06:47 15.23326 108.11848 13995 ft 326 kts 339°
2026-04-23 06:47 15.25439 108.11036 13560 ft 324 kts 339°
2026-04-23 06:47 15.27536 108.10228 13152 ft 321 kts 339°
2026-04-23 06:47 15.29627 108.09424 12749 ft 319 kts 339°
2026-04-23 06:48 15.31708 108.08622 12338 ft 316 kts 339°
2026-04-23 06:48 15.33776 108.07824 11919 ft 315 kts 339°
2026-04-23 06:48 15.35811 108.07039 11526 ft 314 kts 339°
2026-04-23 06:48 15.37849 108.06253 11254 ft 308 kts 339°
2026-04-23 06:49 15.39841 108.05489 10949 ft 303 kts 341°
2026-04-23 06:49 15.41923 108.05109 10526 ft 302 kts
2026-04-23 06:49 15.43944 108.05608 10133 ft 300 kts 24°
2026-04-23 06:49 15.45802 108.06561 9766 ft 298 kts 27°
2026-04-23 06:50 15.47660 108.07553 9391 ft 296 kts 27°
2026-04-23 06:50 15.49494 108.08526 9016 ft 295 kts 27°
2026-04-23 06:50 15.51309 108.09478 8635 ft 294 kts 27°
2026-04-23 06:50 15.53134 108.10429 8287 ft 292 kts 27°
2026-04-23 06:51 15.54962 108.11379 7918 ft 290 kts 27°
2026-04-23 06:51 15.56763 108.12313 7564 ft 288 kts 27°
2026-04-23 06:51 15.58545 108.13236 7213 ft 286 kts 27°
2026-04-23 06:51 15.60316 108.14153 6871 ft 284 kts 27°
2026-04-23 06:52 15.62083 108.15067 6530 ft 282 kts 27°
2026-04-23 06:52 15.63849 108.15982 6202 ft 279 kts 27°
2026-04-23 06:52 15.65582 108.16881 6008 ft 277 kts 26°
2026-04-23 06:52 15.67314 108.17780 5778 ft 277 kts 26°
2026-04-23 06:53 15.69025 108.18665 5537 ft 276 kts 26°
2026-04-23 06:53 15.70752 108.19559 5316 ft 276 kts 26°
2026-04-23 06:53 15.72474 108.20451 5081 ft 275 kts 26°
2026-04-23 06:53 15.74186 108.21339 4842 ft 275 kts 26°
2026-04-23 06:54 15.75898 108.22227 4613 ft 274 kts 27°
2026-04-23 06:54 15.77598 108.23107 4392 ft 267 kts 26°
2026-04-23 06:54 15.79324 108.23669 4180 ft 260 kts
2026-04-23 06:54 15.81100 108.23453 3981 ft 253 kts 349°
2026-04-23 06:55 15.82814 108.23077 3767 ft 247 kts 349°
2026-04-23 06:55 15.84478 108.22753 3548 ft 237 kts 351°
2026-04-23 06:55 15.86057 108.22493 3324 ft 224 kts 353°
2026-04-23 06:55 15.87568 108.22269 3151 ft 212 kts 354°
2026-04-23 06:56 15.88999 108.22063 2994 ft 201 kts 354°
2026-04-23 06:56 15.90362 108.21868 2612 ft 197 kts 354°
2026-04-23 06:56 15.91720 108.21672 2181 ft 192 kts 355°
2026-04-23 06:56 15.93009 108.21485 1905 ft 181 kts 355°
2026-04-23 06:57 15.94195 108.21312 1701 ft 166 kts 355°
2026-04-23 06:57 15.95316 108.21149 1491 ft 161 kts 355°
2026-04-23 06:57 15.96395 108.20992 1282 ft 151 kts 355°
2026-04-23 06:57 15.97438 108.20842 1103 ft 149 kts 355°
2026-04-23 06:58 15.98472 108.20693 927 ft 150 kts 355°
2026-04-23 06:58 15.99506 108.20543 741 ft 149 kts 355°
2026-04-23 06:58 16.00558 108.20392 546 ft 150 kts 355°
2026-04-23 06:58 16.01585 108.20242 344 ft 149 kts 355°
2026-04-23 06:59 16.02628 108.20091 161 ft 150 kts 355°
2026-04-23 06:59 16.03642 108.19949 64 ft 137 kts 354°
2026-04-23 06:59 16.04440 108.19832 63 ft 91 kts 352°
2026-04-23 06:59 16.04882 108.19768 61 ft 43 kts 353°
2026-04-23 07:00 16.05150 108.19729 59 ft 37 kts 353°
2026-04-23 07:00 16.05395 108.19695 59 ft 33 kts 354°
2026-04-23 07:00 16.05588 108.19662 58 ft 21 kts 353°
2026-04-23 07:00 16.05711 108.19671 57 ft 14 kts 47°
2026-04-23 07:01 16.05729 108.19746 56 ft 10 kts 83°
2026-04-23 07:01 16.05737 108.19820 56 ft 10 kts 83°
2026-04-23 07:01 16.05749 108.19904 54 ft 12 kts 80°
2026-04-23 07:01 16.05727 108.19983 52 ft 12 kts 154°
2026-04-23 07:02 16.05639 108.19997 52 ft 12 kts 171°
2026-04-23 07:02 16.05549 108.20011 52 ft 13 kts 172°
2026-04-23 07:02 16.05459 108.20023 53 ft 12 kts 172°
2026-04-23 07:02 16.05378 108.20037 54 ft 10 kts 161°
2026-04-23 07:03 16.05343 108.20075 55 ft 6 kts 152°
2026-04-23 07:03 16.05304 108.20099 55 ft 6 kts 137°
2026-04-23 07:03 16.05293 108.20145 55 ft 7 kts 87°
2026-04-23 07:03 16.05298 108.20183 54 ft 0 kts 81°